Air Quality Table

TIMESTAMP NO2 SO2 O3 PM10 PM2.5 CO TEMP HUM WS WD NO
2021-07-28 09:00 7.04 ug/m3 1.23 ug/m3 113.33 ug/m3 7.09 ug/m3 5.48 ug/m3 0.15 mg/m3 27.66 C 53.04 % 3.26 m/s 337.26 Deg 1.03 ug/m3
2021-07-28 08:00 9.94 ug/m3 0.97 ug/m3 95.59 ug/m3 7.2 ug/m3 6.03 ug/m3 0.16 mg/m3 26.47 C 70.5 % 2.85 m/s 343.85 Deg 1.35 ug/m3
2021-07-28 07:00 8.84 ug/m3 0.72 ug/m3 85.64 ug/m3 6.88 ug/m3 6.41 ug/m3 0.16 mg/m3 25.72 C 79.57 % 1.77 m/s 325.73 Deg 0.68 ug/m3
2021-07-28 06:00 6.2 ug/m3 0.64 ug/m3 91.06 ug/m3 7.52 ug/m3 6.09 ug/m3 0.16 mg/m3 25.18 C 83.96 % 1.52 m/s 323.19 Deg 0.06 ug/m3
2021-07-28 05:00 10.99 ug/m3 0.62 ug/m3 76.41 ug/m3 6.72 ug/m3 5.5 ug/m3 0.16 mg/m3 25.21 C 84.31 % 2.27 m/s 343.13 Deg 0 ug/m3
2021-07-28 04:00 3.12 ug/m3 0.82 ug/m3 99.61 ug/m3 5.27 ug/m3 5.56 ug/m3 0.16 mg/m3 25.21 C 83.48 % 3 m/s 344.26 Deg -0.01 ug/m3
2021-07-28 03:00 1.73 ug/m3 0.32 ug/m3 107.82 ug/m3 5.76 ug/m3 5.17 ug/m3 0.15 mg/m3 25.05 C 82.28 % 2.51 m/s 341.3 Deg -0.02 ug/m3
2021-07-28 02:00 0.01 ug/m3 0.24 ug/m3 113.41 ug/m3 5.62 ug/m3 4.88 ug/m3 0.14 mg/m3 24.99 C 84.67 % 1.4 m/s 318.88 Deg -0.02 ug/m3
2021-07-28 01:00 0.69 ug/m3 0.65 ug/m3 123.66 ug/m3 3.82 ug/m3 5.68 ug/m3 0.16 mg/m3 26.26 C 65.05 % 1.76 m/s 342.24 Deg -0.01 ug/m3
2021-07-28 00:00 1.46 ug/m3 0.84 ug/m3 130.29 ug/m3 5.3 ug/m3 5.08 ug/m3 0.15 mg/m3 27.12 C 51.42 % 1.33 m/s 354.24 Deg -0.02 ug/m3
2021-07-27 23:00 1.45 ug/m3 0.82 ug/m3 132.14 ug/m3 6.51 ug/m3 4.92 ug/m3 0.14 mg/m3 27.52 C 41.84 % 0.96 m/s 37.25 Deg -0.01 ug/m3
2021-07-27 22:00 0.86 ug/m3 0.92 ug/m3 128.1 ug/m3 6.61 ug/m3 5.88 ug/m3 0.15 mg/m3 27.57 C 43.53 % 1.32 m/s 55.75 Deg -0.02 ug/m3
2021-07-27 21:00 0.47 ug/m3 0.83 ug/m3 128.1 ug/m3 6.42 ug/m3 5.53 ug/m3 0.15 mg/m3 27.27 C 50.55 % 1.03 m/s 65.07 Deg -0.02 ug/m3
2021-07-27 20:00 0.84 ug/m3 0.6 ug/m3 124.52 ug/m3 5.51 ug/m3 4.81 ug/m3 0.15 mg/m3 26.94 C 60.2 % 0.94 m/s 97.73 Deg -0.02 ug/m3
2021-07-27 19:00 0.71 ug/m3 0.77 ug/m3 129.32 ug/m3 6.66 ug/m3 4.79 ug/m3 0.14 mg/m3 28.81 C 37.74 % 1.2 m/s 301.81 Deg -0.02 ug/m3
2021-07-27 18:00 0.26 ug/m3 0.82 ug/m3 129.09 ug/m3 7.14 ug/m3 4.55 ug/m3 0.15 mg/m3 28.88 C 44.02 % 1.99 m/s 328.5 Deg 0.01 ug/m3
2021-07-27 17:00 0.54 ug/m3 0.81 ug/m3 127.28 ug/m3 7.04 ug/m3 5.29 ug/m3 0.16 mg/m3 27.99 C 64.01 % 2.58 m/s 348.43 Deg 0.08 ug/m3
2021-07-27 16:00 0.33 ug/m3 0.65 ug/m3 120.23 ug/m3 6.39 ug/m3 5.29 ug/m3 0.16 mg/m3 27.59 C 71.29 % 2.86 m/s 335.04 Deg 0.06 ug/m3
2021-07-27 15:00 0.13 ug/m3 0.61 ug/m3 113.1 ug/m3 6.18 ug/m3 5.49 ug/m3 0.16 mg/m3 28.24 C 64.55 % 2.56 m/s 330.07 Deg 0.03 ug/m3
2021-07-27 14:00 0.37 ug/m3 0.63 ug/m3 109.22 ug/m3 7.76 ug/m3 4.88 ug/m3 0.16 mg/m3 28.06 C 68.74 % 3.11 m/s 234.73 Deg 0.06 ug/m3
2021-07-27 13:00 0.15 ug/m3 0.51 ug/m3 106.93 ug/m3 7.47 ug/m3 5.84 ug/m3 0.16 mg/m3 28.32 C 65.44 % 2.76 m/s 128.53 Deg 0.05 ug/m3
2021-07-27 12:00 0.17 ug/m3 0.15 ug/m3 105.5 ug/m3 8.35 ug/m3 6.66 ug/m3 0.17 mg/m3 26.85 C 81.77 % 3.6 m/s 111.92 Deg 0.06 ug/m3
2021-07-27 11:00 0.57 ug/m3 0.15 ug/m3 107.75 ug/m3 10.26 ug/m3 7.05 ug/m3 0.17 mg/m3 26.92 C 81.84 % 2.99 m/s 70.66 Deg 0.1 ug/m3
2021-07-27 10:00 0.99 ug/m3 0.38 ug/m3 107.8 ug/m3 11.78 ug/m3 6.15 ug/m3 0.17 mg/m3 27.14 C 79.76 % 2.45 m/s 114.86 Deg 0.12 ug/m3
2021-07-27 09:00 0.86 ug/m3 0.41 ug/m3 111.12 ug/m3 14.5 ug/m3 7.54 ug/m3 0.17 mg/m3 26.78 C 74.11 % 2.6 m/s 177.57 Deg 0.12 ug/m3
2021-07-27 08:00 4.41 ug/m3 0.27 ug/m3 99.52 ug/m3 16.88 ug/m3 8.19 ug/m3 0.18 mg/m3 25.93 C 85.98 % 2.04 m/s 183.54 Deg 0.53 ug/m3
2021-07-27 07:00 15.26 ug/m3 0.23 ug/m3 74.14 ug/m3 12.48 ug/m3 7.97 ug/m3 0.24 mg/m3 24.74 C 90.36 % 1.29 m/s 116.15 Deg 1.34 ug/m3
2021-07-27 06:00 4.09 ug/m3 0.16 ug/m3 86.84 ug/m3 10.31 ug/m3 6.86 ug/m3 0.18 mg/m3 24.24 C 92.78 % 1.43 m/s 135.31 Deg 0.07 ug/m3
2021-07-27 05:00 1.98 ug/m3 0.14 ug/m3 89.28 ug/m3 8.65 ug/m3 6.07 ug/m3 0.17 mg/m3 24.08 C 92.24 % 0.89 m/s 101.89 Deg -0.01 ug/m3
2021-07-27 04:00 0.1 ug/m3 0.41 ug/m3 92.7 ug/m3 8.4 ug/m3 6.27 ug/m3 0.17 mg/m3 24.46 C 91.52 % 1.43 m/s 143.75 Deg -0.01 ug/m3
2021-07-27 03:00 0.59 ug/m3 0.16 ug/m3 95.37 ug/m3 8.19 ug/m3 6.38 ug/m3 0.17 mg/m3 24.77 C 86.91 % 1.5 m/s 151.84 Deg -0.01 ug/m3
2021-07-27 02:00 0.74 ug/m3 0.27 ug/m3 97.75 ug/m3 7.66 ug/m3 6.73 ug/m3 0.15 mg/m3 24.94 C 79.64 % 1.22 m/s 125.71 Deg -0.02 ug/m3
2021-07-27 01:00 0.53 ug/m3 0.23 ug/m3 96.63 ug/m3 7.97 ug/m3 6.76 ug/m3 0.18 mg/m3 25.24 C 74.53 % 1.66 m/s 124.68 Deg 0 ug/m3
2021-07-27 00:00 0.8 ug/m3 0.23 ug/m3 91.33 ug/m3 9.11 ug/m3 5.81 ug/m3 0.18 mg/m3 25.4 C 75.9 % 1.83 m/s 128.38 Deg -0.01 ug/m3
2021-07-26 23:00 1.47 ug/m3 0.25 ug/m3 88.09 ug/m3 10.41 ug/m3 6.41 ug/m3 0.19 mg/m3 25.63 C 75.67 % 1.65 m/s 146.98 Deg -0 ug/m3
2021-07-26 22:00 2.71 ug/m3 0.33 ug/m3 84.1 ug/m3 11.33 ug/m3 6.53 ug/m3 0.19 mg/m3 26.01 C 74.54 % 1.84 m/s 149.88 Deg -0.01 ug/m3
2021-07-26 21:00 2.12 ug/m3 0.32 ug/m3 87.29 ug/m3 11.54 ug/m3 6.09 ug/m3 0.18 mg/m3 26.5 C 70.49 % 2.58 m/s 142.23 Deg -0.02 ug/m3
2021-07-26 20:00 0.93 ug/m3 0.28 ug/m3 93.02 ug/m3 9.38 ug/m3 5.54 ug/m3 0.17 mg/m3 26.68 C 68.44 % 3.22 m/s 157 Deg -0.01 ug/m3
2021-07-26 19:00 0.84 ug/m3 0.35 ug/m3 95.23 ug/m3 11.49 ug/m3 6 ug/m3 0.16 mg/m3 27.16 C 69.68 % 4.5 m/s 164.28 Deg 0.03 ug/m3
2021-07-26 18:00 1.75 ug/m3 0.47 ug/m3 93.1 ug/m3 10.13 ug/m3 5.7 ug/m3 0.15 mg/m3 27.93 C 67.36 % 4.89 m/s 168.44 Deg 0.18 ug/m3
2021-07-26 17:00 1.03 ug/m3 0.53 ug/m3 96.96 ug/m3 8.79 ug/m3 5.19 ug/m3 0.15 mg/m3 28.61 C 61.76 % 4.53 m/s 167.54 Deg 0.11 ug/m3
2021-07-26 16:00 0.87 ug/m3 0.51 ug/m3 101.75 ug/m3 8.27 ug/m3 3.8 ug/m3 0.14 mg/m3 29.06 C 53.78 % 4.21 m/s 176.41 Deg 0.07 ug/m3
2021-07-26 15:00 1 ug/m3 0.51 ug/m3 98.32 ug/m3 8.4 ug/m3 4.82 ug/m3 0.14 mg/m3 29.78 C 48.05 % 3.42 m/s 173.9 Deg 0.13 ug/m3
2021-07-26 14:00 0.55 ug/m3 0.49 ug/m3 104.31 ug/m3 9.96 ug/m3 5.13 ug/m3 0.15 mg/m3 28.52 C 66.63 % 2.87 m/s 314.95 Deg 0.07 ug/m3
2021-07-26 13:00 1.58 ug/m3 0.61 ug/m3 117.67 ug/m3 11.22 ug/m3 6.97 ug/m3 0.16 mg/m3 28.14 C 68.55 % 2.95 m/s 295.06 Deg 0.14 ug/m3
2021-07-26 12:00 1.48 ug/m3 0.69 ug/m3 109.58 ug/m3 9.08 ug/m3 6.65 ug/m3 0.15 mg/m3 29.13 C 58.61 % 2.27 m/s 170.14 Deg 0.11 ug/m3
2021-07-26 11:00 0.85 ug/m3 0.6 ug/m3 105.27 ug/m3 11.54 ug/m3 5.53 ug/m3 0.14 mg/m3 28.47 C 54.49 % 4.51 m/s 177.54 Deg 0.05 ug/m3

It is to be noted that the data is provisional and subject to quality assurance procedures. For validated data kindly refer your request to contact.air@era.org.mt